{"data":{"norad_id":60536,"intl_designator":"2024-149BW","name":"LEMUR-2-MARHISYAM","alt_names":[],"object_type":"PAYLOAD","status":"ACTIVE","operator":null,"country":"US","launch_date":"2024-08-16","launch_site_code":"AFWTR","launch_vehicle":null,"mission":null,"orbit_class":"UNKNOWN","rcs_meters":null,"size_class":null,"mass_kg":null,"dimensions":null,"purposes":["earth_obs"],"wikipedia_slug":null,"has_3d_model":false,"image_url":null,"decayed_at":null,"tle_current":{"epoch":"2026-09-18T04:08:16.268928Z","epoch_age_seconds":215868,"freshness":"STALE","line1":"1 60536U 24149BW  26261.17241052  .00007622  00000+0  43775-3 0  9994","line2":"2 60536  97.6831 344.6600 0002691 137.3264 222.8176 15.12805485114534","mean_motion":15.12805485,"eccentricity":0.0002691,"inclination_deg":97.6831,"raan_deg":344.66,"arg_perigee_deg":137.3264,"mean_anomaly_deg":222.8176,"bstar":0.00043775,"rev_number":11453,"period_min":95.187386235581,"perigee_km":525.79062533363,"apogee_km":529.50731934394,"semimajor_km":6905.7859723388,"source":"CELESTRAK","updated_at":"2026-09-20T09:00:34.871442Z"}}}